Regional Weather Roundup
Issued by NWS

Home | Current Version | Previous Version | Graphics & Text | Print | Product List | Glossary On
Versions: 1 2 3 4 5 6 7 8 9 10 11 12 13 14 15 16 17 18 19 20 21 22 23 24 25 26 27 28 29 30 31 32 33 34 35 36 37 38 39 40 41 42 43 44 45 46 47 48 49 50
995
ASUS45 KCYS 192210
RWRWY

WYOMING REGIONAL WEATHER ROUNDUP
NATIONAL WEATHER SERVICE CHEYENNE WY
400 PM MDT THU APR 19 2018

NOTE:  "FAIR" INDICATES FEW OR NO CLOUDS BELOW 12,000 FEET
WITH NO SIGNIFICANT WEATHER AND/OR OBSTRUCTIONS TO VISIBILITY.

WYZ001-192300-
YELLOWSTONE NATIONAL PARK

CITY           SKY/WX    TMP DP  RH WIND       PRES   REMARKS
LK YELLOWSTONE   N/A     42  16  34 VRB5      30.03F
W YELLOWSTONE  NOT AVBL

$$
WYZ002>013-054>058-071-098>099-192300-
NORTHERN WYOMING

CITY           SKY/WX    TMP DP  RH WIND       PRES   REMARKS
JACKSON        FAIR      54  17  23 N13       29.93F
CODY           FAIR      53  19  26 SE6       30.02F
GREYBULL       FAIR      57  28  33 CALM      29.99F
WORLAND        FAIR      59  22  24 VRB5      29.97F
SHERIDAN       FAIR      61  25  25 SE20G29   30.00F
BUFFALO        FAIR      59  23  25 SE16      30.05F
GILLETTE       FAIR      58  28  32 SE26G36   30.06F
HULETT         FAIR      59  27  29 S14G20    30.12F
NEWCASTLE      FAIR      55  25  30 SE24G35   30.12F

$$
WYZ014>020-022>026-101>103-192300-
CENTRAL WYOMING

CITY           SKY/WX    TMP DP  RH WIND       PRES   REMARKS
BIG PINEY      FAIR      54   9  16 SE17G25   29.93F
PINEDALE       FAIR      52   9  17 SE21      29.95F
DUBOIS         FAIR      46  16  29 E17G23    30.00S
LANDER         FAIR      52  21  29 CALM      29.97F
RIVERTON       FAIR      55  23  28 VRB5      29.98F
CASPER         FAIR      64  21  19 E16       29.95F
DOUGLAS        FAIR      62  24  23 SE30G39   30.02F

$$
WYZ021-027>030-104>119-192300-
SOUTHERN WYOMING

CITY           SKY/WX    TMP DP  RH WIND       PRES   REMARKS
EVANSTON       FAIR      56   0  10 S13G24    29.85F
KEMMERER       FAIR      55   1  11 E14G21    29.88F
FORT BRIDGER   FAIR      59   0   9 S17G23    29.90F
ROCK SPRINGS   FAIR      57  -5   8 SW17      29.91F
DIXON          FAIR      65   9  11 SE16      29.91F
RAWLINS        FAIR      61   6  11 SE7       29.94F
SARATOGA       FAIR      63   1   8 SW3       29.94F
LARAMIE        FAIR      52  15  23 SE39G46   30.01F
CHEYENNE       FAIR      58  18  21 S22G40    30.07F
TORRINGTON     FAIR      64  26  23 S28G40    30.07F
PINE BLUFFS    FAIR      61  19  20 S25G33    30.09F

$$




USA.gov is the U.S. government's official web portal to all federal, state and local government web resources and services.